Weather observations for the past three days for
Lexington Blue Grass Airport
Imperial (Metric)
Date Time (edt) Wind (mph) Vis. (mi.) Weather Sky Cond. Temperature (ºF) Relative Humidity Wind Chill (°F) Heat Index (°F) Pressure Precipitation (in)
Air Dwpt 6 hour altimeter (in) sea level (mb) 1 hr 3 hr 6 hr
Max. Min.
06 11:54 N 8 4.00 Fog/Mist OVC007 73 69.1 87% 30.02 1015.5
06 10:54 NE 9 5.00 Fog/Mist OVC006 72 69.1 91% 30 1015.1
06 09:54 NE 9 4.00 Fog/Mist OVC004 72 70 94% 29.99 1014.6
06 08:54 NE 8 6.00 Fog/Mist OVC004 72 70 94% 29.98 1014.2
06 07:54 NE 9 10.00 Overcast OVC005 71.1 69.1 73 70 94% 29.95 1013.2
06 06:54 N 8 10.00 Partly Cloudy FEW006 SCT100 70 69.1 97% 29.94 1012.7
06 05:54 NE 7 10.00 Fair CLR 70 68 93% 29.92 1012.1
06 04:54 NE 6 10.00 Fair CLR 70 68 93% 29.91 1011.7
06 03:54 Calm 10.00 Fair CLR 71.1 68 90% 29.91 1011.7
06 02:54 N 3 10.00 Fair CLR 72 68 87% 29.92 1011.9
06 01:54 NE 7 10.00 A Few Clouds FEW050 73 68 82.9 73 84% 29.93 1012.3
06 00:54 NE 5 10.00 Mostly Cloudy BKN050 75 68 79% 76 29.94 1012.5
05 23:54 NE 6 10.00 Fair CLR 75 68 79% 76 29.93 1012.3
05 22:54 N 10 10.00 A Few Clouds FEW060 77 68 74% 79 29.93 1012.3
05 21:54 E 7 10.00 Fair CLR 80.1 68 67% 83 29.91 1011.8
05 20:54 E 6 10.00 Fair CLR 81 68 65% 84 29.9 1011.4
05 19:54 NE 10 10.00 Fair CLR 82.9 69.1 93 82.9 63% 87 29.9 1011.5
05 18:54 N 5 10.00 Fair CLR 88 70 55% 93 29.91 1011.5
05 17:54 NW 7 10.00 Fair CLR 91.9 68 46% 96 29.9 1011.4
05 16:54 W 8 10.00 Fair CLR 91.9 66.9 44% 95 29.9 1011.2
05 13:54 Vrbl 5 10.00 Fair CLR 88 66 88 71.1 48% 90 29.96 1013.5 0.05
05 12:54 SE 6 10.00 Fair CLR 86 64.9 49% 88 29.98 1013.9
05 11:54 S 6 10.00 Fair CLR 82.9 66.9 59% 86 29.98 1014.0
05 10:54 SE 8 10.00 Fair CLR 79 68 69% 81 30 1014.7 0.05
05 09:54 NE 9 10.00 Fair CLR 73 68 84% 30.01 1015.2
05 08:54 NE 20 G 30 10.00 Thunderstorm in Vicinity Light Rain FEW055 SCT070 BKN110 71.1 66.9 87% 30.02 1015.7 0.05
05 07:54 N 13 10.00 Thunderstorm Light Rain FEW037 BKN075 OVC095 71.1 66.9 77 70 87% 30.01 1015.2 0.16 0.16
05 06:54 NW 18 G 30 10.00 Thunderstorm in Vicinity FEW070 77 70 79% 79 29.99 1014.3
05 05:54 Calm 10.00 Fair CLR 73 70 90% 29.96 1013.2
05 04:54 Calm 10.00 Fair CLR 77 71.1 82% 79 29.95 1012.8
05 03:54 Calm 10.00 Fair CLR 75 71.1 88% 75 29.95 1012.7
05 02:54 S 3 10.00 Fair CLR 77 71.1 82% 79 29.96 1013.3
05 01:54 SE 5 10.00 Fair CLR 75.9 71.1 87.1 73.9 85% 76 29.98 1014.0
05 00:54 Calm 10.00 Fair CLR 75.9 71.1 85% 76 29.99 1014.3
04 23:54 E 3 10.00 Fair CLR 79 71.1 77% 82 29.99 1014.3
04 22:54 E 5 10.00 Fair CLR 80.1 70 71% 83 30 1014.4
04 21:54 Calm 10.00 Fair CLR 80.1 72 76% 84 29.98 1013.9
04 20:54 Calm 10.00 Fair CLR 82.9 72 70% 88 29.96 1013.5
04 19:54 S 5 10.00 Fair CLR 84.9 72 98.1 84.9 65% 91 29.95 1013.1
04 18:54 N 7 10.00 Fair CLR 93 69.1 46% 98 29.97 1013.7
04 17:54 N 8 10.00 Fair CLR 95 70 44% 101 29.98 1014.0
04 16:54 NW 8 10.00 Fair CLR 97 68 39% 102 29.97 1013.7
04 15:54 W 13 10.00 Fair CLR 97 69.1 40% 103 29.99 1014.4
04 14:54 NW 7 10.00 Partly Cloudy SCT060 97 69.1 40% 103 30.01 1014.9
04 13:54 W 8 10.00 Fair CLR 97 70 97 75 42% 104 30.03 1015.5
04 12:54 Vrbl 6 10.00 Fair CLR 95 71.1 46% 102 30.05 1016.1
04 11:54 Calm 10.00 Fair CLR 91.9 73 54% 101 30.05 1016.4
04 10:54 W 3 10.00 Fair CLR 89.1 73 59% 97 30.05 1016.3
04 09:54 SW 3 10.00 Fair CLR 86 73 65% 93 30.05 1016.3
04 08:54 Calm 10.00 Fair CLR 80.1 72 76% 84 30.05 1016.5
04 07:54 S 5 10.00 Fair CLR 75 71.1 80.1 72 88% 75 30.04 1016.0
04 06:54 S 3 10.00 Fair CLR 73.9 70 88% 30.02 1015.5
04 05:54 SE 3 10.00 Fair CLR 73 71.1 94% 30.02 1015.2
04 04:54 Calm 10.00 Fair CLR 75.9 71.1 85% 76 30.01 1015.1
04 03:54 Calm 10.00 Fair CLR 75.9 71.1 85% 76 30.01 1014.9
04 02:54 Calm 10.00 Fair CLR 78.1 71.1 79% 80 30.01 1015.0
04 01:54 S 5 10.00 Fair CLR 79 71.1 90 77 77% 82 30.02 1015.3
04 00:54 S 5 10.00 Fair CLR 80.1 72 76% 84 30.03 1015.6
03 23:54 SE 6 10.00 Fair CLR 79 73 82% 82 30.04 1015.8
03 22:54 S 3 10.00 Fair CLR 81 73 77% 86 30.04 1015.9
03 21:54 Calm 10.00 Fair CLR 82.9 73 72% 89 30.04 1016.1
03 20:54 Calm 10.00 Fair CLR 86 72 63% 92 30.03 1015.8
03 19:54 Calm 10.00 Fair CLR 90 71.1 97 90 54% 96 30.01 1014.9
03 18:54 W 3 10.00 Fair CLR 93 70 47% 99 30 1014.7
03 17:54 W 6 10.00 Fair CLR 93.9 69.1 44% 99 30 1014.6
03 16:54 W 9 10.00 A Few Clouds FEW060 96.1 68 40% 101 30.01 1015.0
03 14:54 SW 5 10.00 Partly Cloudy SCT060 95 68 41% 100 30.05 1016.2
03 13:54 Calm 10.00 Fair CLR 93.9 68 95 73.9 43% 98 30.06 1016.6
03 12:54 Vrbl 7 10.00 Fair CLR 93.9 69.1 44% 99 30.07 1017.0
Date Time (edt) Wind (mph) Vis. (mi.) Weather Sky Cond. Air Dwpt Max. Min. Relative Humidity Wind Chill (°F) Heat Index (°F) altimeter (in) sea level (mb) 1 hr 3 hr 6 hr
6 hour
Temperature (ºF) Pressure Precipitation (in)